Showing default

COSMOS 2466 (GLONASS), 37137

Orbit data source: Space-Track

COSMOS 2466 (GLONASS), 37137 is a Commonwealth of Independent States-origin payload satellite in MEO that was launched on Thu, 02 Sep 2010 UTC via a PROTON-M/DM-2 launch vehicle from the Tyuratam Missile And Space Complex (TTMTR). Payload-class satellites include a variety of spacecraft equipped with specific instruments for various scientific and technological missions. These include communications satellites like Starlink; space stations such as the ISS; scientific satellites like the Hubble; Earth observation satellites from companies like Planet Labs, Umbra, and HawkEye 360; GPS; miniature CubeSats for education and research; and military/defense satellites.

Loading next visibility...
Identifier
37137, 2010-041A
Orbit
MEO
Country
Flag of CISCIS
Related business
Manufacturer
Resehetnev ISS
Mission
Non-operational Defense Navigation
Bus & Motor
URAGAN, Unknown motor
Mass
1,450 kg wet, ~1,200 kg dry
Launch date (UTC)
2010-09-02 (16 years ago)
Launch vehicle
PROTON-M/DM-2
Launch site
Tyuratam Missile And Space Complex (TTMTR)
Object type
Payload
Rocket body
Debris
Shape & HBR
Cyl + 1 Ant + 2 Pan, 3.9 m
Radar Cross Section
8.467 m², Large (>1 m²)

Expand to show TLE details & history
Last TLE update: 6 days ago

TLE from 6 days ago
0 COSMOS 2466 (GLONASS)
1 37137U 10041A   26259.31672836  .00000013  00000-0  00000-0 0  9991
2 37137  63.8946 186.9588 0016933 176.6782 352.6398  2.13111861124785
Epoch: 2026-09-16T07:36Z
TLE epoch observation values (Epoch: 2026-09-16T07:36:05.330Z)
Latitude
9.58141°
Longitude
-107.06763°
Altitude
19,086.116 km
Speed
3.96 km/s
True Right ascension
00h 08m 53s
True Declination
9° 33' 56"
Sunlit
Object was in partial shadow at epoch
Visualization orbit readout
Latitude
Unknown
Longitude
Unknown
Altitude
Unknown
Speed
Unknown
Apparent Right ascension
Unknown
Apparent Declination
Unknown
Sunlit
N/A
Visualization observer readout
Local Sidereal Time
04:48:32
Azimuth
Unknown
Elevation
Unknown
Doppler factor
Unknown
Orbital elements
Apogee altitude
19,171.945 km
Perigee altitude
19,085.564 km
Semi-major axis
25,506.891 km
Eccentricity
0.00169
Inclination
63.8946°
RAAN
186.9588°
Arg. of periapsis
176.6782°
True anomaly
352.61489°
Mean anomaly
352.6398°
Eccentric anomaly
352.62735°
Mean motion
0.53279 °/min
Orbital period
675.69 mins
BSTAR
0
Loading maneuver chart data...
Computing Atmospheric mass density...
Loading historical data...
Loading historical data...
Loading historical data...
Loading historical data...
Loading historical data...
Loading historical data...
Loading historical data...

Documentation

Showing up to 5 results
|